User: anonymous   Login
Location: Goheenville
(40.9070°N, 79.3720°W)
Time: 15:56:03
(UTC-04:00)
Language:

Meteor 2-10 Rocket - Orbit

View from above orbital plane
View from above orbital plane
View from above satellite
View from above satellite

Ground track
Ground track

The orbit data is extracted from the following two-line orbital elements,

1 14453U 83109B   15147.47758011  .00000095  00000-0  32763-4 0  9998
2 14453 081.1648 142.4838 0106188 078.3854 282.9221 14.24597403640494
Epoch (UTC): 27 May 2015 11:27:42
Eccentricity: 0.0106188
inclination: 81.1648°
perigee height: 733 km
apogee height: 886 km
right ascension of ascending node: 142.4838°
argument of perigee: 78.3854°
revolutions per day: 14.24597403
mean anomaly at epoch: 282.9221°
orbit number at epoch: 64049

The dashed part of the orbit path shows where the satellite is in the earth's shadow,  

DLR